Regional Weather Roundup
Issued by NWS Charleston, SC

Current Version | Previous Version | Text Only | Print | Product List | Glossary Off
Versions: 1 2 3 4 5 6 7 8 9 10 11 12 13 14 15 16 17 18 19 20 21 22 23 24 25 26 27 28 29 30 31 32 33 34 35 36 37 38 39 40 41 42 43 44 45 46 47 48 49 50
000 ASUS42 KCHS 260110 RWRCHS REGIONAL WEATHER ROUNDUP NATIONAL WEATHER SERVICE CHARLESTON SC 800 PM EST TUE NOV 25 2014 NOTE: "FAIR" INDICATES FEW OR NO CLOUDS BELOW 12,000 FEET WITH NO SIGNIFICANT WEATHER AND/OR OBSTRUCTIONS TO VISIBILITY. NOT ALL STATIONS ARE QUALITY CONTROLLED BY THE NATIONAL WEATHER SERVICE. USE DATA WITH CAUTION...ESPECIALLY DEWPOINT OBSERVATIONS. SCZ027-030-031-034>040-042>050-260200- ...SOUTHEAST SOUTH CAROLINA... CITY SKY/WX TMP DP RH WIND PRES REMARKS N CHARLESTON LGT RAIN 63 61 93 NE6 30.03R WATERFRONT PRK N/A 61 N/A N/A E5 N/A MOUNT PLEASANT NOT AVBL JOHNS ISLAND LGT RAIN 63 63 100 E3 30.03R PINOPOLIS N/A 61 59 94 NE3 29.94S MONCKS CORNER DRIZZLE 61 61 100 CALM 30.04R SUMMERVILLE DRIZZLE 61 61 100 CALM 30.04R BEAUFORT MCAS RAIN 61 59 93 E6 30.00F FOG BEAUFORT ARPT HVY RAIN 61 61 100 NE9 30.00F HILTON HEAD IS LGT RAIN 63 63 100 N7 29.99F WALTERBORO CLOUDY 61 N/A N/A NE6 30.02F ALLENDALE LGT RAIN 59 57 94 CALM 30.02F ...SOUTHERN MIDLANDS AND PEE DEE... CITY SKY/WX TMP DP RH WIND PRES REMARKS GEORGETOWN NOT AVBL KINGSTREE NOT AVBL ORANGEBURG LGT RAIN 59 57 93 CALM 30.04R FOG BARNWELL CLOUDY 57 55 94 CALM 30.04S AIKEN CLOUDY 52 52 100 CALM 30.06S MANNING NOT AVBL COLUMBIA LGT RAIN 58 54 86 CALM 30.02S SUMTER LGT RAIN 59 57 94 E3 30.03R FLORENCE CLOUDY 61 59 93 SE6 30.05R MYRTLE BEACH MOCLDY 63 61 94 N8 30.06R N MYRTLE BEACH LGT RAIN 63 62 97 E3 30.04R $$ GAZ063-065-086>088-099>101-113>116-118-119-134>141-150-260200- ...SOUTHEAST GEORGIA... CITY SKY/WX TMP DP RH WIND PRES REMARKS SAVANNAH ARPT CLOUDY 61 58 90 NE5 29.99F HUNTER AAF CLOUDY 61 61 100 N6 29.96F FORT STEWART HVY RAIN 57 54 88 NE1 29.98F STATESBORO NOT AVBL SYLVANIA DRIZZLE 55 54 95 CALM 30.02F CLAXTON DRIZZLE 55 55 100 CALM 30.00F ...CSRA...CENTRAL AND FAR SOUTHEAST GEORGIA... CITY SKY/WX TMP DP RH WIND PRES REMARKS THOMSON CLOUDY 52 52 100 W5 30.10R AUGUSTA-BUSH CLOUDY 53 50 89 NW6 30.03S AUGUSTA-DANIEL CLOUDY 53 49 86 N7 30.04R SWAINSBORO CLOUDY N/A N/A N/A CALM 30.03S VIDALIA RAIN 54 52 94 NW3 30.02S HAZLEHURST CLOUDY 52 52 100 NW3 30.01S ALMA CLOUDY 52 51 97 N7 29.99F WAYCROSS LGT RAIN 56 56 99 N8 29.98F JESUP RAIN 59 55 88 CALM 29.99F BAXLEY RAIN 54 52 94 CALM 30.01S BRUNSWICK CLOUDY 61 59 94 N6 29.97S SAINT SIMONS CLOUDY 61 60 97 NE13 29.94F $$ SCZ027-028-034-036>038-045-046-048>050-GAZ119-141-260200- ...LAKE AND SUPPLEMENTAL COASTAL OBSERVATIONS... STATION/POSITION TIME TEMP WIND PRES WAVE SWELL AIR SEA DIR/SP/G HT/PER HT/PER/DIR (UTC) (F) (DEG/KT/KT) (MB) (FT/S) (FT/S/D) UPR LAKE MARION NOT AVBL WINYAH BAY 0000 61 100/ 5 1017.0S LAKE MURRAY 0000 56 320/ 3/ 4 1016.6R ACE BASIN NERRS 0000 62 30/ 1 1016.0S FORT PULASKI 0100 61 360/ 4/ 5 1015.7S SAPELO ISLAND 0000 60 350/ 6 1015.0S $$ ANZ835-935-AMZ111-154-330-350-352-354-370-450-454-472-260200- ...C-MAN AND BUOY OBSERVATIONS... STATION/POSITION TIME TEMP WIND PRES WAVE SWELL AIR SEA DIR/SP/G HT/PER HT/PER/DIR (UTC) (F) (DEG/KT/KT) (MB) (FT/S) (FT/S/D) FOLLY BEACH CMAN 0000 60 40/ 4/ 5 1017.2R BUOY 41004 0100 69 75 70/ 16/ 17 1014.8F 4/ 9 3/ 9 BUOY 41008 0100 63 64 30/ 16/ 21 1014.1F 3/ 9 3/120/ 9 CAPERS NEARSHORE 0000 60 60/ 8/ 8 N/A FRIPP NEARSHORE NOT AVBL STATION/POSITION TIME TEMP WIND PRES WAVE SWELL AIR SEA DIR/SP/G HT/PER HT/PER/DIR (UTC) (F) (DEG/KT/KT) (MB) (FT/S) (FT/S/D) 5E ST. MARYS GA 0100 62 N/A 4/ 9 FRYING PAN BUOY 0100 67 70 40/ 6/ 8 1018.1R 3/ 8 3/140/ 8 BUOY 41025 0100 67 CALM / 4 1018.7R 5/ 8 5/150/ 8 CAPE LOOKOUT NC 0000 64 40/ 4/ 5 1018.6R BUOY 41002 NOT AVBL BUOY 41010 0100 79 78 170/ 17/ 19 1015.1R 7/ 9 3/120/ 9 ST AUGUSTINE FL 0100 65 340/ 7/ 7 1014.1R $$

USA.gov is the U.S. government's official web portal to all federal, state and local government web resources and services.